TimeMDT,TemperatureF,Dew PointF,Humidity,Sea Level PressureIn,VisibilityMPH,Wind Direction,Wind SpeedMPH,Gust SpeedMPH,PrecipitationIn,Events,Conditions,WindDirDegrees,DateUTC
12:15 AM,71.6,61.7,71,29.85,10.0,South,24.2,31.1,N/A,Rain-Thunderstorm,Light Thunderstorms and Rain,170,2013-06-24 06:15:00
12:35 AM,73.4,49.3,42,29.83,10.0,South,26.5,33.4,N/A,Thunderstorm,Unknown,180,2013-06-24 06:35:00
12:55 AM,70.5,55.2,58,29.88,10.0,South,19.6,25.3,N/A,Rain,Light Rain,190,2013-06-24 06:55:00
1:15 AM,67.6,56.5,67,29.89,10.0,South,15.0,23.0,N/A,Rain-Thunderstorm,Light Thunderstorms and Rain,170,2013-06-24 07:15:00
1:35 AM,67.1,56.3,68,29.91,10.0,South,13.8,-,N/A,Rain-Thunderstorm,Light Thunderstorms and Rain,180,2013-06-24 07:35:00
1:55 AM,65.1,57.2,75,29.91,10.0,South,19.6,23.0,N/A,Rain,Light Rain,180,2013-06-24 07:55:00
2:15 AM,65.7,56.3,72,29.91,10.0,South,20.7,28.8,N/A,Rain,Light Rain,170,2013-06-24 08:15:00
2:35 AM,65.1,56.8,75,29.91,10.0,South,19.6,26.5,N/A,Rain,Light Rain,170,2013-06-24 08:35:00
2:55 AM,66.2,56.1,70,29.91,10.0,South,17.3,26.5,0.01,Rain,Light Rain,180,2013-06-24 08:55:00
3:15 AM,68.9,54.0,59,29.89,10.0,South,17.3,27.6,N/A,,Clear,190,2013-06-24 09:15:00
3:35 AM,69.3,53.2,57,29.86,10.0,West,11.5,33.4,N/A,Rain,Light Rain,260,2013-06-24 09:35:00
3:55 AM,66.2,56.1,70,29.81,10.0,NW,12.7,17.3,N/A,,Mostly Cloudy,310,2013-06-24 09:55:00
4:15 AM,67.3,54.7,64,29.77,10.0,SSE,9.2,-,N/A,Rain,Light Rain,160,2013-06-24 10:15:00
4:35 AM,67.5,53.1,60,29.78,10.0,SSW,18.4,23.0,N/A,Thunderstorm,Mostly Cloudy,210,2013-06-24 10:35:00
4:55 AM,72.1,50.2,46,29.79,10.0,South,15.0,24.2,N/A,,Scattered Clouds,190,2013-06-24 10:55:00
5:15 AM,69.8,51.6,52,29.75,10.0,Calm,Calm,-,N/A,,Scattered Clouds,0,2013-06-24 11:15:00
5:35 AM,67.3,54.0,62,29.73,10.0,NNE,9.2,-,N/A,,Clear,30,2013-06-24 11:35:00
5:55 AM,68.0,52.9,58,29.74,10.0,NE,8.1,-,N/A,,Clear,50,2013-06-24 11:55:00
6:15 AM,67.1,54.0,63,29.79,10.0,ESE,13.8,-,N/A,,Clear,110,2013-06-24 12:15:00
6:35 AM,66.9,54.3,64,29.81,10.0,SE,5.8,-,N/A,,Clear,130,2013-06-24 12:35:00
6:55 AM,68.2,53.4,59,29.82,10.0,SE,8.1,16.1,N/A,,Clear,140,2013-06-24 12:55:00
7:15 AM,68.0,54.3,62,29.83,10.0,South,8.1,-,N/A,,Clear,170,2013-06-24 13:15:00
7:35 AM,67.3,55.8,66,29.84,10.0,SSW,11.5,-,N/A,,Clear,200,2013-06-24 13:35:00
7:55 AM,68.9,56.7,65,29.85,10.0,SSW,9.2,-,N/A,,Clear,210,2013-06-24 13:55:00
8:15 AM,70.0,56.5,62,29.85,10.0,SSW,9.2,19.6,N/A,,Clear,210,2013-06-24 14:15:00
8:35 AM,71.8,56.5,58,29.85,10.0,SW,10.4,-,N/A,,Clear,220,2013-06-24 14:35:00
8:55 AM,73.4,55.8,54,29.84,10.0,SSW,10.4,-,N/A,,Clear,210,2013-06-24 14:55:00
9:15 AM,75.2,55.8,51,29.84,10.0,SSW,10.4,-,N/A,,Clear,210,2013-06-24 15:15:00
9:35 AM,76.3,55.4,48,29.84,10.0,SW,9.2,-,N/A,,Clear,220,2013-06-24 15:35:00
9:55 AM,77.0,54.0,45,29.84,10.0,SW,8.1,-,N/A,,Clear,230,2013-06-24 15:55:00
10:15 AM,77.9,54.9,45,29.83,10.0,SSW,8.1,-,N/A,,Clear,210,2013-06-24 16:15:00
10:35 AM,79.2,55.2,44,29.83,10.0,SSW,8.1,-,N/A,,Clear,210,2013-06-24 16:35:00
10:55 AM,78.8,54.3,43,29.83,10.0,South,6.9,-,N/A,,Clear,190,2013-06-24 16:55:00
11:15 AM,79.2,54.9,43,29.82,10.0,SSW,5.8,-,N/A,,Clear,200,2013-06-24 17:15:00
11:35 AM,80.1,54.3,41,29.82,10.0,South,8.1,-,N/A,,Clear,170,2013-06-24 17:35:00
11:55 AM,80.4,56.7,44,29.82,10.0,SSE,8.1,-,N/A,,Clear,150,2013-06-24 17:55:00
12:15 PM,81.3,56.7,43,29.81,10.0,SSE,4.6,-,N/A,,Clear,160,2013-06-24 18:15:00
12:35 PM,81.7,56.3,42,29.81,10.0,SSE,6.9,-,N/A,,Clear,150,2013-06-24 18:35:00
12:55 PM,82.0,57.7,43,29.81,10.0,SSE,12.7,-,N/A,,Clear,150,2013-06-24 18:55:00
1:15 PM,82.4,57.9,43,29.81,10.0,SSE,10.4,-,N/A,,Clear,150,2013-06-24 19:15:00
1:35 PM,84.0,57.9,41,29.81,10.0,SSE,10.4,-,N/A,,Clear,150,2013-06-24 19:35:00
1:55 PM,84.4,58.1,41,29.79,10.0,SE,10.4,17.3,N/A,,Clear,140,2013-06-24 19:55:00
2:15 PM,84.9,57.2,39,29.79,10.0,SSE,11.5,-,N/A,,Clear,160,2013-06-24 20:15:00
2:35 PM,85.6,57.4,38,29.78,10.0,SE,11.5,17.3,N/A,,Clear,140,2013-06-24 20:35:00
2:55 PM,86.0,56.8,37,29.78,10.0,SSE,12.7,16.1,N/A,,Clear,150,2013-06-24 20:55:00
3:15 PM,86.0,57.0,37,29.77,10.0,SE,11.5,16.1,N/A,,Clear,140,2013-06-24 21:15:00
3:35 PM,86.0,57.6,38,29.77,10.0,SSE,10.4,-,N/A,,Clear,150,2013-06-24 21:35:00
3:55 PM,86.7,56.3,35,29.76,10.0,SSE,12.7,20.7,N/A,,Clear,160,2013-06-24 21:55:00
4:15 PM,86.2,58.5,39,29.76,10.0,SE,10.4,16.1,N/A,,Clear,140,2013-06-24 22:15:00
4:35 PM,87.6,58.5,37,29.74,10.0,SE,9.2,-,N/A,,Clear,140,2013-06-24 22:35:00
4:55 PM,87.6,58.6,37,29.73,10.0,SSE,11.5,17.3,N/A,,Clear,160,2013-06-24 22:55:00
5:15 PM,87.3,58.1,37,29.73,10.0,South,11.5,-,N/A,,Clear,170,2013-06-24 23:15:00
5:35 PM,87.3,58.8,38,29.72,10.0,SSE,9.2,-,N/A,,Clear,160,2013-06-24 23:35:00
5:55 PM,87.1,60.1,40,29.72,10.0,SE,11.5,-,N/A,,Clear,140,2013-06-24 23:55:00
6:15 PM,86.9,60.1,40,29.71,10.0,SSE,9.2,-,N/A,,Clear,150,2013-06-25 00:15:00
6:35 PM,86.5,61.0,42,29.72,10.0,SE,10.4,-,N/A,,Clear,130,2013-06-25 00:35:00
6:55 PM,85.5,62.2,46,29.71,10.0,ESE,10.4,-,N/A,,Clear,120,2013-06-25 00:55:00
7:15 PM,85.1,62.6,47,29.71,10.0,ESE,10.4,-,N/A,,Clear,110,2013-06-25 01:15:00
7:35 PM,83.3,64.8,53,29.71,10.0,East,11.5,-,N/A,,Clear,100,2013-06-25 01:35:00
7:55 PM,81.1,65.7,59,29.71,10.0,East,9.2,-,N/A,,Clear,90,2013-06-25 01:55:00
8:15 PM,80.1,67.1,64,29.71,10.0,East,15.0,20.7,N/A,,Clear,90,2013-06-25 02:15:00
8:35 PM,79.0,67.5,68,29.72,10.0,East,11.5,17.3,N/A,,Clear,90,2013-06-25 02:35:00
8:55 PM,78.1,67.5,70,29.72,10.0,East,9.2,-,N/A,,Clear,100,2013-06-25 02:55:00
9:15 PM,77.4,67.3,71,29.73,10.0,East,10.4,-,N/A,,Clear,90,2013-06-25 03:15:00
9:35 PM,76.5,67.3,73,29.74,10.0,East,6.9,-,N/A,,Clear,80,2013-06-25 03:35:00
9:55 PM,75.6,67.6,76,29.75,10.0,East,9.2,-,N/A,,Clear,80,2013-06-25 03:55:00
10:15 PM,75.2,68.0,78,29.75,10.0,East,9.2,-,N/A,,Clear,90,2013-06-25 04:15:00
10:35 PM,74.3,68.0,81,29.75,10.0,East,8.1,-,N/A,,Clear,90,2013-06-25 04:35:00
10:55 PM,73.6,68.4,84,29.75,10.0,East,8.1,-,N/A,,Clear,90,2013-06-25 04:55:00
11:15 PM,73.8,68.4,83,29.76,10.0,NNE,12.7,-,N/A,,Clear,20,2013-06-25 05:15:00
11:35 PM,73.6,68.4,84,29.76,10.0,NNE,9.2,-,N/A,,Clear,30,2013-06-25 05:35:00
11:55 PM,73.8,68.4,83,29.76,10.0,East,11.5,-,N/A,,Clear,80,2013-06-25 05:55:00